Find Local Weather

World > North America > United States > Washington

Silverdale, Washington Regional Weather

Lat: 47.64N, Lon: 122.69W
Wx Zone: WAZ558
Feedback
Expires:201901182100;;558046
ASUS46 KSEW 182010
RWRWA 

WASHINGTON REGIONAL WEATHER ROUNDUP
NATIONAL WEATHER SERVICE SEATTLE WA
1200 PM PST FRI JAN 18 2019

NOTE:"FAIR" INDICATES FEW OR NO CLOUDS BELOW 12,000 FEET WITH NO 
SIGNIFICANT WEATHER AND/OR OBSTRUCTIONS TO VISIBILITY.


WAZ507-509-555>559-182100-
SEATTLE, TACOMA, EVERETT, AND VICINITY
  
CITY           SKY/WX    TMP DP  RH WIND       PRES   REMARKS
EVERETT        PTSUNNY   48  38  68 SE17      30.11S                  
BOEING FIELD   CLOUDY    51  39  63 SE10      30.11F                  
RENTON         CLOUDY    52  39  61 SE6       30.11F                  
SEATAC AIRPORT CLOUDY    50  38  63 SE8       30.10F                  
JBLM-MCCHORD   CLOUDY    49  47  91 CALM      30.10F                  
PUYALLUP       FAIR      52  39  62 VRB3      30.10F                  
BREMERTON      CLOUDY    45  43  93 SW7       30.10F                  
JBLM-FT LEWIS  NOT AVBL                                               
TACOMA NARROWS CLOUDY    47  40  76 CALM      30.10F                  
$$
 

SKY/WX - Weather  TMP - Temperature  DP - Dew Point  RH - Relative Humidity
WIND - Wind Direction/Speed PRES - Barometric Pressure